Volver al catálogo

STARLINK-32846

ActivoComunicacionesVLEO
NORAD 62867·PAYLOAD·🇺🇸 United States

Lanzado Feb 1, 2025 desde Vandenberg Space Force Base

Loading…

Próximos Pases (próximas 24 horas)

TLE

ActualizadoSource: CelesTrak SupGP

Época: Sep 15, 2026, 03:10 UTC

1 62867C 25022P   26258.13243056  .00053860  00000+0  15913-2 0  2587
2 62867  53.1596 326.7082 0001150  91.4854   3.9219 15.34364129    19

Sigue STARLINK-32846 en tiempo real con AllMySat

Download on the App Store